Latest Coastal Weather Observations for Cape Sorell

IDT60701

Issued at 8:11 pm EST Thursday 28 May 2015 (issued every 10 minutes, with the page automatically refreshed every 10 minutes)

About coastal observations | Map of coastal stations | Coastal observations for TAS | Marine services | Other Formats
Station Details ID: 097000 Name: CAPE SORELL Lat: -42.20 Lon: 145.17 Height: 19.3 m
Data from the previous 72 hours. | See also: Recent months at Cape Sorell
Date/Time
EST
Temp

°C
Wind Pressure Rain
since 9am
mm
Weather Cloud Vis
km
Sea
Height
m
Swell
Dir
 
Speed
knots
Gust
knots
hPa Trend Height
m
Period
s
Dir
28/08:02pm 8.7 WNW 27 39 1007.4 - 7.2 - - - - - - -
28/08:00pm 9.1 WNW 26 39 1007.1 - 7.0 - - - - - - -
28/07:57pm 9.9 WNW 23 38 1006.8 - 7.0 - - - - - - -
28/07:55pm 10.9 NW 21 38 1007.1 - 7.0 - - - - - - -
28/07:30pm 10.4 WNW 26 32 1006.8 - 7.0 - - - - - - -
28/07:00pm 9.5 WNW 24 42 1006.5 - 6.8 - - - - - - -
28/06:50pm 10.6 WNW 24 35 1006.4 - 6.8 - - - - - - -
28/06:30pm 9.8 WNW 20 29 1006.2 - 6.8 - - - - - - -
28/06:08pm 10.5 WNW 17 30 1006.5 - 6.4 - - - - - - -
28/06:00pm 10.3 WNW 18 24 1006.2 - 6.4 Rain - - - - - -
28/05:56pm 10.1 WNW 19 25 1006.3 - 6.4 - - - - - - -
28/05:34pm 10.6 W 20 31 1006.2 - 5.4 - - - - - - -
28/05:30pm 11.1 W 20 31 1006.0 - 5.2 - - - - - - -
28/05:23pm 11.2 WNW 23 31 1005.8 - 5.2 - - - - - - -
28/05:17pm 11.4 NW 19 30 1005.8 - 5.2 - - - - - - -
28/05:00pm 11.3 NW 19 27 1005.9 - 5.2 - - - - - - -
28/04:30pm 10.8 WNW 22 30 1005.6 - 5.2 - - - - - - -
28/04:00pm 11.0 WNW 20 27 1005.9 - 5.2 - - - - - - -
28/03:30pm 10.3 WNW 22 28 1005.4 - 5.2 - - - - - - -
28/03:00pm 10.4 WNW 22 29 1005.0 - 4.8 Rain - - - - - -
28/02:30pm 10.4 W 20 30 1004.9 - 4.2 - - - - - - -
28/02:00pm 10.5 W 21 31 1004.9 - 3.2 - - - - - - -
28/01:51pm 10.6 W 25 39 1005.1 - 2.8 - - - - - - -
28/01:45pm 10.9 WNW 25 39 1004.6 - 2.4 - - - - - - -
28/01:34pm 12.8 NW 23 33 1004.6 - 0.6 - - - - - - -
28/01:30pm 12.9 NW 24 33 1004.6 - 0.6 - - - - - - -
28/01:28pm 13.2 NNW 24 33 1004.7 - 0.6 - - - - - - -
28/01:21pm 14.1 NNW 23 33 1004.5 - 0.6 - - - - - - -
28/01:00pm 14.7 NNW 24 32 1005.1 - 0.6 - - - - - - -
28/12:30pm 13.6 NNW 21 29 1005.4 - 0.6 - - - - - - -
28/12:00pm 13.5 NNW 21 32 1005.9 - 0.6 - - - - - - -
28/11:30am 13.6 NNW 22 31 1006.5 - 0.6 - - - - - - -
28/11:00am 14.1 NNW 19 29 1007.1 - 0.6 - - - - - - -
28/10:30am 13.9 NNW 20 30 1007.4 - 0.6 - - - - - - -
28/10:00am 13.7 N 20 25 1007.6 - 0.6 - - - - - - -
28/09:30am 12.8 N 23 29 1008.1 - 0.6 - - - - - - -
28/09:00am 12.5 N 22 28 1008.0 - 3.2 Rain - - - - - -
28/08:30am 13.0 N 22 26 1008.4 - 2.8 - - - - - - -
28/08:00am 12.6 N 20 27 1008.6 - 2.8 - - - - - - -
28/07:30am 12.3 N 26 33 1008.4 - 2.8 - - - - - - -
28/07:00am 13.3 N 25 32 1008.5 - 1.8 - - - - - - -
28/06:30am 13.4 N 26 31 1008.4 - 1.8 - - - - - - -
28/06:00am 13.2 N 23 29 1008.6 - 1.8 - - - - - - -
28/05:30am 13.2 N 23 28 1008.7 - 1.8 - - - - - - -
28/05:00am 13.2 N 24 29 1008.9 - 1.8 - - - - - - -
28/04:30am 13.1 N 24 29 1008.8 - 1.8 - - - - - - -
28/04:00am 13.1 N 25 32 1008.9 - 1.8 - - - - - - -
28/03:30am 13.1 N 25 31 1009.1 - 1.8 - - - - - - -
28/03:00am 13.1 N 23 27 1009.6 - 1.8 - - - - - - -
28/02:30am 13.8 NNW 21 27 1010.4 - 1.8 - - - - - - -
28/02:19am 13.6 NNW 20 30 1010.6 - 1.8 - - - - - - -
28/02:00am 13.1 NNW 17 22 1010.8 - 1.8 - - - - - - -
28/01:30am 13.8 NNW 18 25 1010.7 - 1.8 - - - - - - -
28/01:00am 13.6 NNW 18 24 1010.9 - 1.8 - - - - - - -
28/12:30am 13.6 NNW 19 25 1011.4 - 1.8 - - - - - - -
28/12:00am 13.3 NW 18 22 1011.8 - 1.8 - - - - - - -
 
Date/Time
EST
Temp

°C
Wind Pressure Rain
since 9am
mm
Weather Cloud Vis
km
Sea
Height
m
Swell
Dir
 
Speed
knots
Gust
knots
hPa Trend Height
m
Period
s
Dir
27/11:30pm 12.9 NW 18 23 1011.9 - 1.8 - - - - - - -
27/11:00pm 12.9 NW 17 23 1012.1 - 1.8 - - - - - - -
27/10:30pm 12.1 NW 20 25 1012.3 - 1.8 - - - - - - -
27/10:00pm 13.8 NNW 20 29 1012.3 - 1.2 - - - - - - -
27/09:30pm 13.6 N 19 25 1012.3 - 1.2 - - - - - - -
27/09:00pm 13.3 NNW 19 25 1012.2 - 1.2 - - - - - - -
27/08:30pm 13.7 NNW 17 24 1012.1 - 1.2 - - - - - - -
27/08:00pm 13.2 NNW 17 22 1012.1 - 1.2 - - - - - - -
27/07:31pm 13.5 NNW 23 34 1011.8 - 1.2 - - - - - - -
27/07:30pm 13.4 NNW 24 34 1011.8 - 1.2 - - - - - - -
27/07:18pm 13.6 N 25 35 1011.3 - 1.0 - - - - - - -
27/07:00pm 14.0 N 27 33 1010.8 - 0.4 - - - - - - -
27/06:30pm 14.8 N 26 30 1010.4 - 0.2 - - - - - - -
27/06:00pm 14.7 N 26 31 1010.4 - 0.2 - - - - - - -
27/05:30pm 14.6 N 24 30 1010.8 - 0.2 - - - - - - -
27/05:00pm 14.6 N 23 27 1010.8 - 0.2 - - - - - - -
27/04:30pm 14.5 N 23 28 1011.3 - 0.2 - - - - - - -
27/04:00pm 14.6 N 23 26 1011.4 - 0.2 - - - - - - -
27/03:30pm 14.6 N 23 27 1011.7 - 0.2 - - - - - - -
27/03:00pm 14.5 N 22 27 1011.8 - 0.2 - - - - - - -
27/02:30pm 14.7 N 21 26 1012.0 - 0.2 - - - - - - -
27/02:00pm 14.4 N 21 25 1012.1 - 0.2 - - - - - - -
27/01:30pm 14.3 N 22 27 1012.5 - 0.2 - - - - - - -
27/01:00pm 14.4 N 22 28 1013.2 - 0.2 - - - - - - -
27/12:30pm 14.3 N 23 29 1013.3 - 0.2 - - - - - - -
27/12:00pm 13.6 N 22 26 1013.8 - 0.2 Recent precip. - - - - - -
27/11:30am 13.8 N 22 26 1014.2 - 0.0 - - - - - - -
27/11:00am 14.2 N 23 30 1014.5 - 0.0 - - - - - - -
27/10:30am 13.6 N 21 25 1014.5 - 0.0 - - - - - - -
27/10:00am 13.6 NNE 23 27 1014.4 - 0.0 - - - - - - -
27/09:30am 13.1 NNE 23 27 1014.6 - 0.0 - - - - - - -
27/09:00am 13.1 NNE 23 27 1014.9 - 0.4 - - - - - - -
27/08:30am 12.9 NNE 23 28 1015.0 - 0.4 - - - - - - -
27/08:00am 12.2 NNE 23 28 1015.0 - 0.4 - - - - - - -
27/07:30am 12.8 NNE 23 27 1015.4 - 0.2 - - - - - - -
27/07:00am 12.9 N 23 28 1015.4 - 0.2 - - - - - - -
27/06:30am 12.7 NNE 21 25 1015.5 - 0.2 - - - - - - -
27/06:00am 12.7 NNE 21 25 1015.7 - 0.2 - - - - - - -
27/05:30am 12.5 NNE 20 24 1016.0 - 0.2 - - - - - - -
27/05:00am 12.4 NNE 19 23 1016.5 - 0.2 - - - - - - -
27/04:30am 12.3 NNE 17 21 1017.2 - 0.2 - - - - - - -
27/04:00am 11.7 NNE 11 13 1017.8 - 0.2 - - - - - - -
27/03:30am 11.7 NNE 14 17 1018.2 - 0.2 - - - - - - -
27/03:00am 11.2 NNE 11 13 1019.1 - 0.2 - - - - - - -
27/02:30am 10.9 NNE 11 16 1019.6 - 0.2 - - - - - - -
27/02:00am 10.6 NE 8 10 1019.9 - 0.2 - - - - - - -
27/01:30am 10.6 NNE 7 9 1020.3 - 0.2 - - - - - - -
27/01:00am 9.2 NE 7 8 1020.5 - 0.2 - - - - - - -
27/12:30am 9.1 ENE 9 10 1020.7 - 0.2 - - - - - - -
27/12:00am 9.4 ENE 9 11 1021.2 - 0.2 - - - - - - -
 
Date/Time
EST
Temp

°C
Wind Pressure Rain
since 9am
mm
Weather Cloud Vis
km
Sea
Height
m
Swell
Dir
 
Speed
knots
Gust
knots
hPa Trend Height
m
Period
s
Dir
26/11:30pm 9.8 ENE 8 9 1021.6 - 0.2 - - - - - - -
26/11:00pm 10.0 ENE 8 10 1021.7 - 0.2 - - - - - - -
26/10:30pm 9.7 ENE 7 8 1022.0 - 0.2 - - - - - - -
26/10:00pm 9.9 ENE 6 8 1022.4 - 0.2 - - - - - - -
26/09:30pm 9.9 ENE 8 9 1022.6 - 0.2 - - - - - - -
26/09:00pm 9.9 ENE 7 8 1022.8 - 0.2 - - - - - - -
26/08:30pm 10.3 ENE 5 6 1023.4 - 0.2 - - - - - - -
26/08:00pm 10.6 ENE 5 6 1023.5 - 0.2 - - - - - - -
26/07:30pm 10.9 NE 4 5 1023.7 - 0.2 - - - - - - -
26/07:00pm 12.0 NE 5 5 1023.8 - 0.2 - - - - - - -
26/06:30pm 12.2 NNE 4 6 1024.1 - 0.2 - - - - - - -
26/06:00pm 12.6 NNE 4 6 1024.1 - 0.2 - - - - - - -
26/05:30pm 12.4 NE 4 4 1024.2 - 0.2 - - - - - - -
26/05:00pm 12.5 ESE 3 3 1024.2 - 0.2 - - - - - - -
26/04:30pm 13.0 SSW 2 3 1024.4 - 0.2 - - - - - - -
26/04:00pm 13.5 SSW 1 4 1024.5 - 0.2 - - - - - - -
26/03:30pm 13.5 CALM 0 0 1024.7 - 0.2 - - - - - - -
26/03:00pm 14.3 SSW 2 3 1024.7 - 0.2 - - - - - - -
26/02:30pm 14.7 SSW 3 3 1025.0 - 0.2 - - - - - - -
26/02:00pm 14.2 SSW 3 4 1025.2 - 0.2 - - - - - - -
26/01:30pm 14.7 SSW 4 5 1025.4 - 0.2 - - - - - - -
26/01:00pm 15.5 SW 5 5 1025.8 - 0.2 - - - - - - -
26/12:30pm 14.2 WNW 1 3 1026.1 - 0.2 - - - - - - -
26/12:00pm 14.4 E 2 5 1026.3 - 0.2 - - - - - - -
26/11:30am 15.3 NE 5 6 1026.8 - 0.2 - - - - - - -
26/11:00am 15.4 W 3 4 1027.2 - 0.2 - - - - - - -
26/10:30am 14.1 WSW 4 6 1027.3 - 0.2 - - - - - - -
26/10:00am 14.2 N 2 3 1027.2 - 0.0 - - - - - - -
26/09:30am 14.5 NNW 2 4 1027.2 - 0.0 - - - - - - -
26/09:00am 13.0 W 3 6 1027.3 - 1.0 - - - - - - -
26/08:30am 13.0 W 6 9 1027.2 - 1.0 - - - - - - -
26/08:00am 13.1 W 8 11 1027.3 - 1.0 - - - - - - -
26/07:30am 13.0 W 5 7 1027.2 - 1.0 - - - - - - -
26/07:00am 12.9 W 4 6 1026.9 - 1.0 - - - - - - -
26/06:30am 13.1 W 5 7 1026.8 - 1.0 - - - - - - -
26/06:00am 13.2 W 5 8 1026.7 - 1.0 - - - - - - -
26/05:30am 13.2 W 8 11 1026.7 - 1.0 - - - - - - -
26/05:00am 13.1 WNW 8 10 1026.6 - 1.0 - - - - - - -
26/04:30am 13.1 W 7 9 1026.6 - 1.0 - - - - - - -
26/04:00am 13.1 WNW 6 8 1026.5 - 1.0 - - - - - - -
26/03:30am 13.2 WNW 6 8 1026.5 - 1.0 - - - - - - -
26/03:00am 13.1 WNW 7 10 1026.8 - 1.0 - - - - - - -
26/02:30am 13.2 WNW 9 10 1026.8 - 1.0 - - - - - - -
26/02:00am 13.2 WNW 8 10 1026.9 - 1.0 - - - - - - -
26/01:30am 13.1 WNW 8 11 1026.9 - 1.0 - - - - - - -
26/01:00am 13.1 WNW 10 12 1026.8 - 1.0 - - - - - - -
26/12:30am 13.0 WNW 10 12 1026.9 - 1.0 - - - - - - -
26/12:00am 13.0 WNW 10 12 1026.9 - 1.0 - - - - - - -
 
Date/Time
EST
Temp

°C
Wind Pressure Rain
since 9am
mm
Weather Cloud Vis
km
Sea
Height
m
Swell
Dir
 
Speed
knots
Gust
knots
hPa Trend Height
m
Period
s
Dir
25/11:30pm 13.0 WNW 10 12 1027.0 - 1.0 - - - - - - -
25/11:00pm 13.1 WNW 11 13 1027.0 - 1.0 - - - - - - -
25/10:30pm 13.0 WNW 10 13 1027.2 - 1.0 - - - - - - -
25/10:00pm 13.1 WNW 11 14 1027.2 - 1.0 - - - - - - -
25/09:30pm 12.9 WNW 10 13 1027.3 - 1.0 - - - - - - -
25/09:00pm 13.1 N 12 14 1027.0 - 1.0 - - - - - - -
25/08:30pm 13.0 NNW 9 12 1027.0 - 1.0 - - - - - - -

Other Formats:

Comma delimited format used in spreadsheet applications
http://www.bom.gov.au/fwo/IDT60701/IDT60701.94974.axf

JavaScript Object Notation format (JSON) in row-major order
http://www.bom.gov.au/fwo/IDT60701/IDT60701.94974.json